N32AP KASE-KBCE

Flight info

Callsign N32AP
Flight time 1h 41m
Altitude 28000
Route LINDZ1 LINDZ JNC HVE BCE
Aircraft BE60/L-SDFGRY/C

Departure

Time 2026-04-25 03:21
Airport Aspen-Pitkin County Airport (Sardy Field) (KASE)

Arrival

Time 2026-04-25 05:03
Airport Bryce Canyon Airport (KBCE)
Time Latitude Longitude Altitude Speed Heading
2026-04-25 03:01 39.22434 -106.86773 7739 ft 0 kts 69°
2026-04-25 03:10 39.22435 -106.86770 7739 ft 0 kts 86°
2026-04-25 03:11 39.22434 -106.86767 7739 ft 3 kts 107°
2026-04-25 03:11 39.22435 -106.86772 7739 ft 0 kts 69°
2026-04-25 03:12 39.22436 -106.86770 7739 ft 0 kts 53°
2026-04-25 03:12 39.22266 -106.86693 7751 ft 0 kts 73°
2026-04-25 03:12 39.22276 -106.86689 7751 ft 5 kts 332°
2026-04-25 03:12 39.22269 -106.86716 7751 ft 9 kts 192°
2026-04-25 03:13 39.22186 -106.86692 7759 ft 15 kts 165°
2026-04-25 03:13 39.22069 -106.86647 7769 ft 20 kts 161°
2026-04-25 03:13 39.21933 -106.86582 7776 ft 22 kts 158°
2026-04-25 03:13 39.21775 -106.86506 7789 ft 27 kts 160°
2026-04-25 03:14 39.21593 -106.86418 7811 ft 30 kts 159°
2026-04-25 03:14 39.21481 -106.86443 7818 ft 20 kts 268°
2026-04-25 03:14 39.21521 -106.86507 7816 ft 0 kts 340°
2026-04-25 03:15 39.21522 -106.86507 7816 ft 4 kts 340°
2026-04-25 03:15 39.21793 -106.86634 7792 ft 76 kts 341°
2026-04-25 03:16 39.22373 -106.86911 7744 ft 76 kts 339°
2026-04-25 03:16 39.22725 -106.87081 7722 ft 47 kts 339°
2026-04-25 03:16 39.22943 -106.87175 7703 ft 18 kts 346°
2026-04-25 03:16 39.22928 -106.87180 7704 ft 16 kts 144°
2026-04-25 03:17 39.22896 -106.87050 7709 ft 8 kts 128°
2026-04-25 03:17 39.22830 -106.87011 7715 ft 11 kts 161°
2026-04-25 03:17 39.22754 -106.86975 7722 ft 12 kts 159°
2026-04-25 03:17 39.22667 -106.86933 7727 ft 15 kts 161°
2026-04-25 03:18 39.22565 -106.86884 7736 ft 16 kts 160°
2026-04-25 03:18 39.22449 -106.86828 7739 ft 20 kts 159°
2026-04-25 03:18 39.22313 -106.86763 7748 ft 22 kts 160°
2026-04-25 03:18 39.22168 -106.86695 7760 ft 22 kts 161°
2026-04-25 03:19 39.22026 -106.86627 7774 ft 21 kts 159°
2026-04-25 03:19 39.21893 -106.86562 7787 ft 20 kts 158°
2026-04-25 03:19 39.21757 -106.86492 7796 ft 22 kts 161°
2026-04-25 03:19 39.21617 -106.86432 7809 ft 21 kts 157°
2026-04-25 03:20 39.21505 -106.86390 7816 ft 13 kts 201°
2026-04-25 03:20 39.21502 -106.86496 7817 ft 9 kts 335°
2026-04-25 03:20 39.21505 -106.86498 7817 ft 0 kts 339°
2026-04-25 03:20 39.21545 -106.86518 7815 ft 31 kts 336°
2026-04-25 03:21 39.21971 -106.86723 7776 ft 96 kts 340°
2026-04-25 03:21 39.22733 -106.87057 7769 ft 136 kts 341°
2026-04-25 03:21 39.23649 -106.87494 8205 ft 140 kts 340°
2026-04-25 03:21 39.24629 -106.87838 8549 ft 151 kts 344°
2026-04-25 03:22 39.25713 -106.88185 8758 ft 170 kts 345°
2026-04-25 03:22 39.26932 -106.88567 8846 ft 190 kts 346°
2026-04-25 03:22 39.28238 -106.89043 8886 ft 204 kts 333°
2026-04-25 03:22 39.29299 -106.90295 8905 ft 213 kts 300°
2026-04-25 03:23 39.29968 -106.92041 8918 ft 222 kts 291°
2026-04-25 03:23 39.30578 -106.93864 9147 ft 217 kts 292°
2026-04-25 03:23 39.31193 -106.95616 9426 ft 211 kts 293°
2026-04-25 03:23 39.31791 -106.97298 9946 ft 200 kts 291°
2026-04-25 03:24 39.32384 -106.98891 10340 ft 195 kts 293°
2026-04-25 03:24 39.32985 -107.00435 10645 ft 190 kts 293°
2026-04-25 03:24 39.33569 -107.01958 11019 ft 187 kts 292°
2026-04-25 03:24 39.34143 -107.03461 11395 ft 186 kts 293°
2026-04-25 03:25 39.34724 -107.04944 11765 ft 185 kts 292°
2026-04-25 03:25 39.35306 -107.06400 12169 ft 185 kts 290°
2026-04-25 03:25 39.35866 -107.07892 12554 ft 184 kts 290°
2026-04-25 03:25 39.36421 -107.09387 12892 ft 185 kts 290°
2026-04-25 03:26 39.36976 -107.10894 13097 ft 186 kts 290°
2026-04-25 03:26 39.37554 -107.12387 13486 ft 186 kts 291°
2026-04-25 03:26 39.38143 -107.13873 13818 ft 186 kts 290°
2026-04-25 03:26 39.38608 -107.15403 14179 ft 181 kts 276°
2026-04-25 03:27 39.38632 -107.17047 14289 ft 189 kts 256°
2026-04-25 03:27 39.38249 -107.18719 14312 ft 200 kts 253°
2026-04-25 03:27 39.37909 -107.20506 14307 ft 208 kts 255°
2026-04-25 03:27 39.37579 -107.22350 14292 ft 211 kts 255°
2026-04-25 03:28 39.37240 -107.24198 14290 ft 211 kts 255°
2026-04-25 03:28 39.36893 -107.26040 14290 ft 210 kts 254°
2026-04-25 03:28 39.36542 -107.27872 14286 ft 209 kts 254°
2026-04-25 03:28 39.36189 -107.29695 14296 ft 208 kts 254°
2026-04-25 03:29 39.35838 -107.31501 14269 ft 206 kts 254°
2026-04-25 03:29 39.35494 -107.33264 14281 ft 205 kts 254°
2026-04-25 03:29 39.35143 -107.35053 14305 ft 206 kts 254°
2026-04-25 03:29 39.34790 -107.36851 14299 ft 207 kts 254°
2026-04-25 03:30 39.34438 -107.38658 14304 ft 207 kts 254°
2026-04-25 03:30 39.34083 -107.40468 14305 ft 208 kts 254°
2026-04-25 03:30 39.33727 -107.42287 14301 ft 209 kts 254°
2026-04-25 03:30 39.33370 -107.44110 14303 ft 210 kts 254°
2026-04-25 03:31 39.33011 -107.45938 14303 ft 210 kts 254°
2026-04-25 03:31 39.32652 -107.47770 14301 ft 211 kts 254°
2026-04-25 03:31 39.32291 -107.49605 14292 ft 210 kts 253°
2026-04-25 03:31 39.31931 -107.51435 14311 ft 211 kts 254°
2026-04-25 03:32 39.31568 -107.53280 14318 ft 213 kts 254°
2026-04-25 03:32 39.31203 -107.55142 14308 ft 215 kts 254°
2026-04-25 03:32 39.30836 -107.57011 14293 ft 214 kts 253°
2026-04-25 03:32 39.30470 -107.58875 14295 ft 214 kts 254°
2026-04-25 03:33 39.30109 -107.60706 14304 ft 213 kts 254°
2026-04-25 03:33 39.29742 -107.62560 14309 ft 213 kts 254°
2026-04-25 03:33 39.29376 -107.64409 14304 ft 212 kts 254°
2026-04-25 03:33 39.29011 -107.66255 14306 ft 212 kts 253°
2026-04-25 03:34 39.28644 -107.68102 14321 ft 213 kts 253°
2026-04-25 03:34 39.28276 -107.69954 14314 ft 213 kts 254°
2026-04-25 03:34 39.27908 -107.71801 14351 ft 211 kts 254°
2026-04-25 03:34 39.27543 -107.73635 14390 ft 210 kts 253°
2026-04-25 03:35 39.27181 -107.75459 14394 ft 210 kts 255°
2026-04-25 03:35 39.26817 -107.77286 14406 ft 211 kts 255°
2026-04-25 03:35 39.26449 -107.79123 14408 ft 211 kts 254°
2026-04-25 03:35 39.26087 -107.80937 14414 ft 211 kts 254°
2026-04-25 03:36 39.25720 -107.82775 14409 ft 211 kts 255°
2026-04-25 03:36 39.25351 -107.84618 14420 ft 212 kts 255°
2026-04-25 03:36 39.24981 -107.86463 14416 ft 213 kts 254°
2026-04-25 03:36 39.24611 -107.88310 14416 ft 213 kts 254°
2026-04-25 03:37 39.24239 -107.90163 14412 ft 214 kts 254°
2026-04-25 03:37 39.23866 -107.92023 14398 ft 214 kts 255°
2026-04-25 03:37 39.23492 -107.93886 14411 ft 215 kts 254°
2026-04-25 03:37 39.23116 -107.95753 14403 ft 215 kts 254°
2026-04-25 03:38 39.22740 -107.97621 14403 ft 215 kts 255°
2026-04-25 03:38 39.22365 -107.99486 14403 ft 215 kts 254°
2026-04-25 03:38 39.21990 -108.01348 14405 ft 215 kts 254°
2026-04-25 03:38 39.21612 -108.03214 14388 ft 215 kts 254°
2026-04-25 03:39 39.21238 -108.05073 14384 ft 214 kts 254°
2026-04-25 03:39 39.20862 -108.06928 14387 ft 214 kts 254°
2026-04-25 03:39 39.20487 -108.08778 14394 ft 214 kts 254°
2026-04-25 03:39 39.20110 -108.10641 14401 ft 215 kts 254°
2026-04-25 03:40 39.19733 -108.12502 14404 ft 215 kts 254°
2026-04-25 03:40 39.19359 -108.14344 14409 ft 215 kts 254°
2026-04-25 03:40 39.18981 -108.16210 14402 ft 215 kts 254°
2026-04-25 03:40 39.18601 -108.18074 14406 ft 215 kts 254°
2026-04-25 03:41 39.18224 -108.19929 14412 ft 214 kts 254°
2026-04-25 03:41 39.17844 -108.21794 14421 ft 214 kts 254°
2026-04-25 03:41 39.17465 -108.23649 14428 ft 214 kts 254°
2026-04-25 03:41 39.17088 -108.25502 14439 ft 214 kts 254°
2026-04-25 03:42 39.16711 -108.27353 14441 ft 213 kts 254°
2026-04-25 03:42 39.16332 -108.29203 14454 ft 214 kts 254°
2026-04-25 03:42 39.15949 -108.31075 14459 ft 216 kts 255°
2026-04-25 03:42 39.15566 -108.32946 14469 ft 217 kts 254°
2026-04-25 03:43 39.15180 -108.34824 14437 ft 215 kts 254°
2026-04-25 03:43 39.14807 -108.36656 14461 ft 214 kts 254°
2026-04-25 03:43 39.14425 -108.38513 14477 ft 214 kts 254°
2026-04-25 03:43 39.14042 -108.40373 14492 ft 215 kts 254°
2026-04-25 03:44 39.13659 -108.42234 14493 ft 215 kts 254°
2026-04-25 03:44 39.13274 -108.44101 14496 ft 216 kts 255°
2026-04-25 03:44 39.12888 -108.45976 14493 ft 217 kts 255°
2026-04-25 03:44 39.12500 -108.47858 14493 ft 218 kts 255°
2026-04-25 03:45 39.12112 -108.49742 14492 ft 218 kts 255°
2026-04-25 03:45 39.11722 -108.51628 14492 ft 218 kts 255°
2026-04-25 03:45 39.11332 -108.53515 14491 ft 218 kts 255°
2026-04-25 03:45 39.10941 -108.55406 14493 ft 218 kts 255°
2026-04-25 03:46 39.10550 -108.57294 14495 ft 218 kts 255°
2026-04-25 03:46 39.10158 -108.59183 14493 ft 218 kts 255°
2026-04-25 03:46 39.09771 -108.61051 14493 ft 218 kts 255°
2026-04-25 03:46 39.09379 -108.62939 14492 ft 218 kts 255°
2026-04-25 03:47 39.08987 -108.64825 14487 ft 218 kts 255°
2026-04-25 03:47 39.08589 -108.66735 14480 ft 218 kts 255°
2026-04-25 03:47 39.08202 -108.68598 14471 ft 218 kts 255°
2026-04-25 03:47 39.07810 -108.70475 14462 ft 217 kts 255°
2026-04-25 03:48 39.07418 -108.72350 14458 ft 217 kts 255°
2026-04-25 03:48 39.07026 -108.74232 14449 ft 217 kts 255°
2026-04-25 03:48 39.06634 -108.76107 14357 ft 217 kts 255°
2026-04-25 03:48 39.06241 -108.77985 14362 ft 217 kts 254°
2026-04-25 03:49 39.05780 -108.79841 14365 ft 217 kts 249°
2026-04-25 03:49 39.05196 -108.81638 14361 ft 218 kts 247°
2026-04-25 03:49 39.04606 -108.83431 14358 ft 218 kts 248°
2026-04-25 03:49 39.04020 -108.85230 14356 ft 218 kts 248°
2026-04-25 03:50 39.03437 -108.87024 14351 ft 217 kts 248°
2026-04-25 03:50 39.03051 -108.88208 14353 ft 217 kts 248°
2026-04-25 03:50 39.02466 -108.90001 14355 ft 217 kts 248°
2026-04-25 03:50 39.01882 -108.91794 14355 ft 217 kts 248°
2026-04-25 03:51 39.01297 -108.93582 14359 ft 217 kts 248°
2026-04-25 03:51 39.00711 -108.95369 14346 ft 217 kts 248°
2026-04-25 03:51 39.00127 -108.97154 14345 ft 216 kts 247°
2026-04-25 03:51 38.99548 -108.98928 14350 ft 215 kts 248°
2026-04-25 03:52 38.98965 -109.00698 14352 ft 215 kts 248°
2026-04-25 03:52 38.98382 -109.02475 14353 ft 215 kts 247°
2026-04-25 03:52 38.97798 -109.04247 14359 ft 215 kts 247°
2026-04-25 03:52 38.97212 -109.06024 14360 ft 216 kts 247°
2026-04-25 03:53 38.96629 -109.07795 14358 ft 216 kts 247°
2026-04-25 03:53 38.96044 -109.09572 14361 ft 216 kts 247°
2026-04-25 03:53 38.95458 -109.11353 14359 ft 216 kts 247°
2026-04-25 03:53 38.94869 -109.13137 14355 ft 217 kts 247°
2026-04-25 03:54 38.94278 -109.14931 14357 ft 219 kts 247°
2026-04-25 03:54 38.93691 -109.16714 14353 ft 220 kts 247°
2026-04-25 03:54 38.93096 -109.18517 14349 ft 220 kts 247°
2026-04-25 03:54 38.92497 -109.20328 14347 ft 220 kts 247°
2026-04-25 03:55 38.91901 -109.22130 14346 ft 219 kts 247°
2026-04-25 03:55 38.91303 -109.23936 14349 ft 219 kts 247°
2026-04-25 03:55 38.90706 -109.25739 14350 ft 219 kts 247°
2026-04-25 03:55 38.90108 -109.27542 14349 ft 219 kts 246°
2026-04-25 03:56 38.89510 -109.29345 14347 ft 220 kts 247°
2026-04-25 03:56 38.88910 -109.31155 14345 ft 219 kts 246°
2026-04-25 03:56 38.88314 -109.32950 14346 ft 219 kts 246°
2026-04-25 03:56 38.87716 -109.34748 14345 ft 218 kts 246°
2026-04-25 03:57 38.87121 -109.36539 14350 ft 218 kts 246°
2026-04-25 03:57 38.86526 -109.38329 14347 ft 218 kts 246°
2026-04-25 03:57 38.85938 -109.40096 14348 ft 218 kts 246°
2026-04-25 03:57 38.85342 -109.41883 14349 ft 218 kts 246°
2026-04-25 03:58 38.84747 -109.43669 14349 ft 218 kts 246°
2026-04-25 03:58 38.84150 -109.45458 14348 ft 218 kts 246°
2026-04-25 03:58 38.83551 -109.47249 14353 ft 219 kts 247°
2026-04-25 03:58 38.82951 -109.49044 14353 ft 219 kts 247°
2026-04-25 03:59 38.82350 -109.50844 14351 ft 220 kts 247°
2026-04-25 03:59 38.81746 -109.52653 14352 ft 221 kts 247°
2026-04-25 03:59 38.81139 -109.54468 14349 ft 222 kts 247°
2026-04-25 03:59 38.80531 -109.56289 14349 ft 222 kts 247°
2026-04-25 04:00 38.79923 -109.58104 14346 ft 222 kts 247°
2026-04-25 04:00 38.79314 -109.59918 14344 ft 221 kts 248°
2026-04-25 04:00 38.78716 -109.61702 14354 ft 221 kts 248°
2026-04-25 04:00 38.78101 -109.63533 14353 ft 221 kts 248°
2026-04-25 04:01 38.77496 -109.65338 14350 ft 220 kts 248°
2026-04-25 04:01 38.76889 -109.67144 14350 ft 220 kts 248°
2026-04-25 04:01 38.76283 -109.68947 14466 ft 220 kts 248°
2026-04-25 04:01 38.75677 -109.70750 14464 ft 220 kts 248°
2026-04-25 04:02 38.75072 -109.72548 14466 ft 220 kts 248°
2026-04-25 04:02 38.74464 -109.74351 14463 ft 220 kts 248°
2026-04-25 04:02 38.73858 -109.76146 14461 ft 220 kts 248°
2026-04-25 04:02 38.73252 -109.77944 14464 ft 219 kts 248°
2026-04-25 04:03 38.72647 -109.79736 14462 ft 219 kts 247°
2026-04-25 04:03 38.72048 -109.81510 14459 ft 220 kts 247°
2026-04-25 04:03 38.71438 -109.83313 14461 ft 220 kts 247°
2026-04-25 04:03 38.70829 -109.85113 14466 ft 221 kts 247°
2026-04-25 04:04 38.70215 -109.86927 14461 ft 222 kts 247°
2026-04-25 04:04 38.69600 -109.88747 14454 ft 223 kts 247°
2026-04-25 04:04 38.68983 -109.90568 14448 ft 223 kts 247°
2026-04-25 04:04 38.68364 -109.92393 14441 ft 224 kts 247°
2026-04-25 04:05 38.67744 -109.94224 14433 ft 224 kts 247°
2026-04-25 04:05 38.67122 -109.96058 14349 ft 225 kts 247°
2026-04-25 04:05 38.66496 -109.97901 14348 ft 225 kts 247°
2026-04-25 04:05 38.65871 -109.99741 14344 ft 225 kts 247°
2026-04-25 04:06 38.65245 -110.01580 14344 ft 225 kts 247°
2026-04-25 04:06 38.64619 -110.03419 14346 ft 225 kts 247°
2026-04-25 04:06 38.63992 -110.05256 14342 ft 225 kts 247°
2026-04-25 04:06 38.63367 -110.07091 14346 ft 225 kts 247°
2026-04-25 04:07 38.62742 -110.08926 14347 ft 225 kts 247°
2026-04-25 04:07 38.62117 -110.10761 14345 ft 225 kts 247°
2026-04-25 04:07 38.61489 -110.12597 14344 ft 225 kts 247°
2026-04-25 04:07 38.60866 -110.14429 14344 ft 225 kts 246°
2026-04-25 04:08 38.60241 -110.16261 14346 ft 225 kts 246°
2026-04-25 04:08 38.59611 -110.18099 14347 ft 226 kts 246°
2026-04-25 04:08 38.58989 -110.19916 14346 ft 226 kts 246°
2026-04-25 04:08 38.58349 -110.21784 14347 ft 227 kts 246°
2026-04-25 04:09 38.57725 -110.23605 14349 ft 227 kts 245°
2026-04-25 04:09 38.57096 -110.25437 14350 ft 227 kts 245°
2026-04-25 04:09 38.56455 -110.27306 14349 ft 227 kts 246°
2026-04-25 04:09 38.55818 -110.29160 14349 ft 227 kts 245°
2026-04-25 04:10 38.55183 -110.31010 14347 ft 227 kts 245°
2026-04-25 04:10 38.54547 -110.32860 14349 ft 227 kts 245°
2026-04-25 04:10 38.53909 -110.34714 14351 ft 227 kts 245°
2026-04-25 04:10 38.53273 -110.36564 14351 ft 227 kts 246°
2026-04-25 04:11 38.51998 -110.40264 14352 ft 228 kts 245°
2026-04-25 04:11 38.51360 -110.42113 14352 ft 228 kts 245°
2026-04-25 04:11 38.50729 -110.43942 14351 ft 228 kts 245°
2026-04-25 04:12 38.50091 -110.45791 14354 ft 228 kts 245°
2026-04-25 04:12 38.49450 -110.47646 14361 ft 228 kts 246°
2026-04-25 04:12 38.48810 -110.49497 14360 ft 228 kts 245°
2026-04-25 04:12 38.48168 -110.51351 14358 ft 228 kts 246°
2026-04-25 04:13 38.47528 -110.53201 14359 ft 228 kts 246°
2026-04-25 04:13 38.46887 -110.55050 14358 ft 228 kts 245°
2026-04-25 04:13 38.46246 -110.56900 14358 ft 228 kts 246°
2026-04-25 04:13 38.45606 -110.58748 14357 ft 228 kts 246°
2026-04-25 04:14 38.44965 -110.60595 14359 ft 228 kts 246°
2026-04-25 04:14 38.44322 -110.62445 14362 ft 228 kts 246°
2026-04-25 04:14 38.43689 -110.64268 14513 ft 228 kts 246°
2026-04-25 04:14 38.43047 -110.66115 14512 ft 228 kts 245°
2026-04-25 04:15 38.42405 -110.67961 14511 ft 228 kts 245°
2026-04-25 04:15 38.41746 -110.69792 14511 ft 228 kts 243°
2026-04-25 04:15 38.41003 -110.71577 14511 ft 227 kts 240°
2026-04-25 04:15 38.40223 -110.73333 14514 ft 228 kts 240°
2026-04-25 04:16 38.39441 -110.75093 14513 ft 228 kts 240°
2026-04-25 04:16 38.38662 -110.76851 14512 ft 228 kts 240°
2026-04-25 04:16 38.37880 -110.78613 14511 ft 228 kts 240°
2026-04-25 04:16 38.37101 -110.80369 14510 ft 228 kts 240°
2026-04-25 04:17 38.36322 -110.82123 14502 ft 227 kts 240°
2026-04-25 04:17 38.35543 -110.83876 14491 ft 227 kts 240°
2026-04-25 04:17 38.34776 -110.85606 14478 ft 228 kts 240°
2026-04-25 04:17 38.33997 -110.87360 14474 ft 228 kts 239°
2026-04-25 04:18 38.33214 -110.89121 14470 ft 229 kts 239°
2026-04-25 04:18 38.32430 -110.90880 14461 ft 229 kts 239°
2026-04-25 04:18 38.31630 -110.92675 14457 ft 230 kts 239°
2026-04-25 04:18 38.30840 -110.94447 14443 ft 230 kts 239°
2026-04-25 04:19 38.30049 -110.96218 14433 ft 230 kts 239°
2026-04-25 04:19 38.29266 -110.97973 14432 ft 230 kts 239°
2026-04-25 04:19 38.28476 -110.99745 14423 ft 230 kts 239°
2026-04-25 04:19 38.27681 -111.01524 14433 ft 231 kts 239°
2026-04-25 04:20 38.26887 -111.03303 14419 ft 231 kts 239°
2026-04-25 04:20 38.26092 -111.05081 14410 ft 231 kts 239°
2026-04-25 04:20 38.25295 -111.06863 14403 ft 231 kts 239°
2026-04-25 04:20 38.24500 -111.08640 14398 ft 231 kts 239°
2026-04-25 04:21 38.23704 -111.10417 14390 ft 231 kts 239°
2026-04-25 04:21 38.22909 -111.12192 14391 ft 231 kts 239°
2026-04-25 04:21 38.22113 -111.13966 14397 ft 231 kts 239°
2026-04-25 04:21 38.21318 -111.15730 14425 ft 229 kts 241°
2026-04-25 04:22 38.20533 -111.17486 14414 ft 228 kts 241°
2026-04-25 04:22 38.19758 -111.19224 14416 ft 225 kts 241°
2026-04-25 04:22 38.18979 -111.20950 14412 ft 224 kts 241°
2026-04-25 04:22 38.18208 -111.22662 14405 ft 223 kts 241°
2026-04-25 04:23 38.17441 -111.24362 14413 ft 222 kts 241°
2026-04-25 04:23 38.16673 -111.26069 14426 ft 221 kts 241°
2026-04-25 04:23 38.15914 -111.27758 14433 ft 221 kts 241°
2026-04-25 04:23 38.15162 -111.29424 14435 ft 220 kts 241°
2026-04-25 04:24 38.14398 -111.31112 14434 ft 220 kts 241°
2026-04-25 04:24 38.13636 -111.32805 14434 ft 219 kts 242°
2026-04-25 04:24 38.12881 -111.34481 14433 ft 217 kts 241°
2026-04-25 04:24 38.12130 -111.36148 14435 ft 217 kts 241°
2026-04-25 04:25 38.11378 -111.37817 14438 ft 218 kts 240°
2026-04-25 04:25 38.10620 -111.39489 14452 ft 219 kts 241°
2026-04-25 04:25 38.09857 -111.41174 14459 ft 219 kts 241°
2026-04-25 04:25 38.09101 -111.42843 14457 ft 219 kts 240°
2026-04-25 04:26 38.08342 -111.44517 14460 ft 219 kts 240°
2026-04-25 04:26 38.07589 -111.46185 14466 ft 222 kts 240°
2026-04-25 04:26 38.06821 -111.47880 14456 ft 221 kts 241°
2026-04-25 04:26 38.06051 -111.49572 14467 ft 221 kts 241°
2026-04-25 04:27 38.05284 -111.51262 14450 ft 221 kts 241°
2026-04-25 04:27 38.04518 -111.52955 14451 ft 221 kts 241°
2026-04-25 04:27 38.03751 -111.54649 14471 ft 221 kts 241°
2026-04-25 04:27 38.02986 -111.56338 14477 ft 221 kts 241°
2026-04-25 04:28 38.02221 -111.58026 14471 ft 221 kts 241°
2026-04-25 04:28 38.01454 -111.59712 14471 ft 221 kts 240°
2026-04-25 04:28 38.00681 -111.61408 14467 ft 222 kts 240°
2026-04-25 04:28 37.99907 -111.63096 14471 ft 222 kts 240°
2026-04-25 04:29 37.99134 -111.64788 14479 ft 222 kts 241°
2026-04-25 04:29 37.98361 -111.66484 14465 ft 222 kts 240°
2026-04-25 04:29 37.97588 -111.68176 14459 ft 222 kts 240°
2026-04-25 04:29 37.96814 -111.69869 14463 ft 222 kts 240°
2026-04-25 04:30 37.96039 -111.71566 14473 ft 223 kts 240°
2026-04-25 04:30 37.95264 -111.73262 14461 ft 222 kts 240°
2026-04-25 04:30 37.94498 -111.74937 14463 ft 222 kts 240°
2026-04-25 04:30 37.93713 -111.76655 14473 ft 224 kts 240°
2026-04-25 04:31 37.92942 -111.78342 14475 ft 225 kts 240°
2026-04-25 04:31 37.92158 -111.80054 14474 ft 224 kts 243°
2026-04-25 04:31 37.91376 -111.81760 14477 ft 223 kts 242°
2026-04-25 04:31 37.90604 -111.83448 14491 ft 222 kts 242°
2026-04-25 04:32 37.89826 -111.85141 14506 ft 221 kts 242°
2026-04-25 04:32 37.89057 -111.86821 14525 ft 220 kts 242°
2026-04-25 04:32 37.88290 -111.88493 14544 ft 221 kts 242°
2026-04-25 04:32 37.87515 -111.90180 14554 ft 222 kts 242°
2026-04-25 04:33 37.86736 -111.91876 14560 ft 223 kts 242°
2026-04-25 04:33 37.85958 -111.93573 14566 ft 223 kts 243°
2026-04-25 04:33 37.85177 -111.95263 14552 ft 223 kts 242°
2026-04-25 04:33 37.84395 -111.96971 14486 ft 226 kts 243°
2026-04-25 04:34 37.83603 -111.98693 14461 ft 227 kts 242°
2026-04-25 04:34 37.83075 -111.99838 14457 ft 227 kts 243°
2026-04-25 04:34 37.82281 -112.01561 14456 ft 226 kts 243°
2026-04-25 04:34 37.81235 -112.03829 14459 ft 225 kts 242°
2026-04-25 04:35 37.80451 -112.05535 14467 ft 224 kts 242°
2026-04-25 04:35 37.79665 -112.07238 14479 ft 224 kts 242°
2026-04-25 04:35 37.78880 -112.08935 14490 ft 223 kts 242°
2026-04-25 04:35 37.78352 -112.10079 14497 ft 222 kts 243°
2026-04-25 04:36 37.77572 -112.11762 14499 ft 221 kts 243°
2026-04-25 04:36 37.76796 -112.13444 14495 ft 222 kts 242°
2026-04-25 04:36 37.76024 -112.15110 14497 ft 223 kts 242°
2026-04-25 04:36 37.75239 -112.16804 14496 ft 224 kts 242°
2026-04-25 04:37 37.74456 -112.18494 14499 ft 224 kts 242°
2026-04-25 04:37 37.73662 -112.20207 14497 ft 224 kts 242°
2026-04-25 04:37 37.72872 -112.21909 14500 ft 225 kts 242°
2026-04-25 04:37 37.72080 -112.23617 14500 ft 225 kts 242°
2026-04-25 04:38 37.71286 -112.25328 14499 ft 225 kts 242°
2026-04-25 04:38 37.70493 -112.27036 14498 ft 226 kts 242°
2026-04-25 04:38 37.69698 -112.28746 14489 ft 226 kts 242°
2026-04-25 04:38 37.68915 -112.30442 14479 ft 226 kts 243°
2026-04-25 04:39 37.68499 -112.32351 14471 ft 225 kts 271°
2026-04-25 04:39 37.68906 -112.34216 14462 ft 227 kts 298°
2026-04-25 04:39 37.70037 -112.35621 14450 ft 234 kts 328°
2026-04-25 04:39 37.71622 -112.36111 14446 ft 242 kts 358°
2026-04-25 04:40 37.73241 -112.35472 14446 ft 250 kts 30°
2026-04-25 04:40 37.74414 -112.33847 14452 ft 256 kts 61°
2026-04-25 04:40 37.74806 -112.31671 14463 ft 257 kts 92°
2026-04-25 04:40 37.74504 -112.29453 14481 ft 257 kts 105°
2026-04-25 04:41 37.74046 -112.27272 14491 ft 257 kts 105°
2026-04-25 04:41 37.73618 -112.25072 14495 ft 257 kts 103°
2026-04-25 04:41 37.73529 -112.22827 14492 ft 257 kts 79°
2026-04-25 04:41 37.74179 -112.20748 14496 ft 254 kts 56°
2026-04-25 04:42 37.75149 -112.18919 14497 ft 254 kts 53°
2026-04-25 04:42 37.76147 -112.17072 14497 ft 254 kts 53°
2026-04-25 04:42 37.77151 -112.15228 14442 ft 256 kts 53°
2026-04-25 04:42 37.78168 -112.13360 14358 ft 259 kts 53°
2026-04-25 04:43 37.79202 -112.11468 14268 ft 263 kts 53°
2026-04-25 04:43 37.80234 -112.09549 14181 ft 265 kts 53°
2026-04-25 04:43 37.81282 -112.07620 14088 ft 267 kts 51°
2026-04-25 04:43 37.82338 -112.05686 14007 ft 267 kts 54°
2026-04-25 04:44 37.83392 -112.03739 13919 ft 269 kts 52°
2026-04-25 04:44 37.84443 -112.01787 13835 ft 267 kts 53°
2026-04-25 04:44 37.85486 -111.99852 13747 ft 265 kts 53°
2026-04-25 04:44 37.86519 -111.97927 13654 ft 264 kts 52°
2026-04-25 04:45 37.87550 -111.96031 13563 ft 264 kts 52°
2026-04-25 04:45 37.88585 -111.94111 13481 ft 263 kts 53°
2026-04-25 04:45 37.89617 -111.92188 13400 ft 265 kts 52°
2026-04-25 04:45 37.90661 -111.90265 13341 ft 265 kts 53°
2026-04-25 04:46 37.91696 -111.88334 13260 ft 266 kts 52°
2026-04-25 04:46 37.92745 -111.86377 12996 ft 269 kts 53°
2026-04-25 04:46 37.93801 -111.84434 12719 ft 266 kts 52°
2026-04-25 04:46 37.94838 -111.82532 12630 ft 257 kts 53°
2026-04-25 04:47 37.95829 -111.80698 12606 ft 248 kts 54°
2026-04-25 04:47 37.96852 -111.78984 12594 ft 240 kts 44°
2026-04-25 04:47 37.98009 -111.77489 12574 ft 235 kts 43°
2026-04-25 04:47 37.99154 -111.76022 12577 ft 232 kts 43°
2026-04-25 04:48 38.00274 -111.74564 12588 ft 230 kts 43°
2026-04-25 04:48 38.01398 -111.73096 12589 ft 235 kts 44°
2026-04-25 04:48 38.02538 -111.71574 12589 ft 241 kts 44°
2026-04-25 04:48 38.03681 -111.70033 12584 ft 245 kts 45°
2026-04-25 04:49 38.04861 -111.68455 12585 ft 247 kts 43°
2026-04-25 04:49 38.06285 -111.67303 12582 ft 241 kts 10°
2026-04-25 04:49 38.07899 -111.67256 12586 ft 230 kts 340°
2026-04-25 04:49 38.09211 -111.68274 12585 ft 219 kts 306°
2026-04-25 04:50 38.09835 -111.69972 12586 ft 211 kts 274°
2026-04-25 04:50 38.09647 -111.71784 12584 ft 210 kts 249°
2026-04-25 04:50 38.08809 -111.73302 12574 ft 214 kts 224°
2026-04-25 04:50 38.07467 -111.74144 12580 ft 223 kts 196°
2026-04-25 04:51 38.05896 -111.74193 12580 ft 227 kts 187°
2026-04-25 04:51 38.04328 -111.74255 12570 ft 225 kts 189°
2026-04-25 04:51 38.02762 -111.74366 12572 ft 225 kts 187°
2026-04-25 04:51 38.01234 -111.74559 12575 ft 221 kts 197°
2026-04-25 04:52 37.99873 -111.75362 12584 ft 213 kts 221°
2026-04-25 04:52 37.98817 -111.76668 12572 ft 212 kts 230°
2026-04-25 04:52 37.97811 -111.78045 12568 ft 213 kts 230°
2026-04-25 04:52 37.96797 -111.79414 12576 ft 214 kts 230°
2026-04-25 04:53 37.95777 -111.80801 12588 ft 216 kts 230°
2026-04-25 04:53 37.94740 -111.82214 12500 ft 223 kts 230°
2026-04-25 04:53 37.93672 -111.83660 12354 ft 223 kts 231°
2026-04-25 04:53 37.92649 -111.85035 12266 ft 203 kts 230°
2026-04-25 04:54 37.91722 -111.86262 12166 ft 185 kts 229°
2026-04-25 04:54 37.90859 -111.87422 12072 ft 177 kts 231°
2026-04-25 04:54 37.90033 -111.88553 11958 ft 174 kts 232°
2026-04-25 04:54 37.89226 -111.89671 11884 ft 171 kts 232°
2026-04-25 04:55 37.88409 -111.90764 11817 ft 170 kts 232°
2026-04-25 04:55 37.87596 -111.91846 11738 ft 170 kts 232°
2026-04-25 04:55 37.86776 -111.92947 11548 ft 174 kts 232°
2026-04-25 04:55 37.85957 -111.94062 11331 ft 176 kts 231°
2026-04-25 04:56 37.85115 -111.95203 11137 ft 178 kts 231°
2026-04-25 04:56 37.84256 -111.96336 10940 ft 177 kts 230°
2026-04-25 04:56 37.83412 -111.97463 10773 ft 176 kts 232°
2026-04-25 04:56 37.82578 -111.98591 10655 ft 173 kts 230°
2026-04-25 04:57 37.81762 -111.99663 10652 ft 163 kts 232°
2026-04-25 04:57 37.81059 -112.00618 10644 ft 132 kts 232°
2026-04-25 04:57 37.80502 -112.01376 10624 ft 105 kts 236°
2026-04-25 04:57 37.80002 -112.02003 10521 ft 98 kts 232°
2026-04-25 04:58 37.79532 -112.02628 10360 ft 99 kts 234°
2026-04-25 04:58 37.79056 -112.03241 10239 ft 97 kts 234°
2026-04-25 04:58 37.78598 -112.03832 10110 ft 94 kts 234°
2026-04-25 04:58 37.78121 -112.04397 9945 ft 95 kts 234°
2026-04-25 04:59 37.77658 -112.04997 9762 ft 95 kts 236°
2026-04-25 04:59 37.77213 -112.05632 9622 ft 95 kts 235°
2026-04-25 04:59 37.76749 -112.06258 9436 ft 99 kts 237°
2026-04-25 04:59 37.76321 -112.06950 9270 ft 97 kts 236°
2026-04-25 05:00 37.75893 -112.07612 9085 ft 97 kts 232°
2026-04-25 05:00 37.75411 -112.08261 8871 ft 103 kts 227°
2026-04-25 05:00 37.74930 -112.08922 8647 ft 103 kts 230°
2026-04-25 05:00 37.74443 -112.09547 8485 ft 98 kts 229°
2026-04-25 05:01 37.73971 -112.10164 8262 ft 98 kts 230°
2026-04-25 05:01 37.73512 -112.10751 8133 ft 94 kts 233°
2026-04-25 05:01 37.73083 -112.11360 8049 ft 95 kts 232°
2026-04-25 05:01 37.72609 -112.11965 7946 ft 97 kts 233°
2026-04-25 05:02 37.72151 -112.12570 7829 ft 96 kts 231°
2026-04-25 05:02 37.71708 -112.13160 7665 ft 91 kts 230°
2026-04-25 05:02 37.71282 -112.13732 7601 ft 86 kts 232°
2026-04-25 05:02 37.70906 -112.14245 7593 ft 73 kts 225°
2026-04-25 05:03 37.70571 -112.14679 7587 ft 62 kts 229°
2026-04-25 05:03 37.70282 -112.15066 7592 ft 57 kts 226°
2026-04-25 05:03 37.70089 -112.15324 7592 ft 28 kts 225°
2026-04-25 05:03 37.70042 -112.15416 7589 ft 9 kts 299°
2026-04-25 05:04 37.70055 -112.15435 7588 ft 0 kts 318°
2026-04-25 05:04 37.70067 -112.15448 7588 ft 6 kts 317°
2026-04-25 05:05 37.70082 -112.15466 7588 ft 0 kts 317°
2026-04-25 05:05 37.70085 -112.15486 7588 ft 5 kts 224°
2026-04-25 05:05 37.70067 -112.15544 7589 ft 10 kts 298°
2026-04-25 05:05 37.70061 -112.15605 7589 ft 2 kts 174°
2026-04-25 05:06 37.70054 -112.15586 7589 ft 0 kts 110°
2026-04-25 05:06 37.70053 -112.15585 7589 ft 0 kts 123°
2026-04-25 05:06 37.70050 -112.15580 7589 ft 1 kts 128°
2026-04-25 05:06 37.70046 -112.15575 7589 ft 0 kts 133°
2026-04-25 05:07 37.70046 -112.15574 7589 ft 0 kts 134°
2026-04-25 05:07 37.70045 -112.15573 7589 ft 0 kts 140°